DW4360 Weather Reports


Display with metric or nautical units.
time (UTC)temp
F
wind
direction
speed
MPH
gust
MPH
rain 1hr
in
rain 24hr
in
rain mn
in
humidity
%
barometer
mb
20260509200618 76 323 0.0 0.0 0.00 0.00 0.00 46 1016.9
20260509195616 75 336 0.0 0.0 0.00 0.00 0.00 47 1017.0
20260509193615 74 305 0.0 0.0 0.00 0.00 0.00 49 1017.2
20260509192613 74 347 0.0 0.0 0.00 0.00 0.00 49 1017.4
20260509191612 74 337 5.0 0.0 0.00 0.00 0.00 51 1017.5
20260509190612 73 320 0.0 0.0 0.00 0.00 0.00 53 1017.6
20260509185610 72 317 0.0 0.0 0.00 0.00 0.00 55 1017.8
20260509184609 72 320 0.0 0.0 0.00 0.00 0.00 55 1018.0
20260509183609 71 326 6.0 0.0 0.00 0.00 0.00 57 1018.1
20260509182607 70 78 0.0 0.0 0.00 0.00 0.00 58 1018.2
20260509181606 69 150 2.0 0.0 0.00 0.00 0.00 59 1018.3
20260509180605 67 314 0.0 0.0 0.00 0.00 0.00 63 1018.3
20260509175604 66 327 0.0 0.0 0.00 0.00 0.00 67 1018.3
20260509174603 65 348 0.0 0.0 0.00 0.00 0.00 68 1018.5
20260509173602 63 319 0.0 0.0 0.00 0.00 0.00 71 1018.6
20260509172601 61 322 0.0 0.0 0.00 0.00 0.00 73 1018.8
20260509171600 60 307 0.0 0.0 0.00 0.00 0.00 76 1019.1
20260509170559 59 165 0.0 0.0 0.00 0.00 0.00 77 1019.2
20260509165558 59 126 4.0 0.0 0.00 0.00 0.00 79 1019.3
20260509164557 58 323 0.0 0.0 0.00 0.00 0.00 80 1019.4
20260509163556 57 318 5.0 0.0 0.00 0.00 0.00 81 1019.5
20260509162555 57 325 0.0 0.0 0.00 0.00 0.00 81 1019.8
20260509161554 56 334 0.0 0.0 0.00 0.00 0.00 83 1019.9
20260509160553 56 323 0.0 0.0 0.00 0.00 0.00 85 1019.9
20260509153550 54 130 0.0 0.0 0.00 0.00 0.00 87 1020.0
20260509152549 54 313 0.0 0.0 0.00 0.00 0.00 88 1020.2
20260509151548 53 313 0.0 0.0 0.00 0.00 0.00 89 1020.3
20260509150547 53 313 0.0 0.0 0.00 0.00 0.00 89 1020.4
20260509145546 52 319 0.0 0.0 0.00 0.00 0.00 91 1020.4
20260509142543 51 350 0.0 0.0 0.00 0.00 0.00 93 1020.2
20260509141542 50 360 0.0 0.0 0.00 0.00 0.00 92 1020.3
20260509140541 50 360 0.0 0.0 0.00 0.00 0.00 92 1020.2
20260509135540 49 360 0.0 0.0 0.00 0.00 0.00 91 1020.2
20260509133538 49 360 0.0 0.0 0.00 0.00 0.00 91 1019.9
20260509132537 49 360 0.0 0.0 0.00 0.00 0.00 90 1020.0
20260509131536 49 360 0.0 0.0 0.00 0.00 0.00 90 1020.0
20260509130535 49 360 0.0 0.0 0.00 0.00 0.00 90 1020.0
20260509125534 49 360 0.0 0.0 0.00 0.00 0.00 89 1019.9
20260509122531 50 360 0.0 0.0 0.00 0.00 0.00 89 1020.2
20260509121529 50 360 0.0 0.0 0.00 0.00 0.00 88 1020.2
20260509120528 50 360 0.0 0.0 0.00 0.00 0.00 88 1020.0
20260509115527 51 360 0.0 0.0 0.00 0.00 0.00 88 1020.1
20260509114527 51 360 0.0 0.0 0.00 0.00 0.00 87 1020.2
20260509113526 51 360 0.0 0.0 0.00 0.00 0.00 87 1020.2
20260509111523 52 360 0.0 0.0 0.00 0.00 0.00 87 1020.4
20260509110522 52 360 0.0 0.0 0.00 0.00 0.00 87 1020.5
20260509105521 52 360 0.0 0.0 0.00 0.00 0.00 86 1020.6
20260509103519 53 360 0.0 0.0 0.00 0.00 0.00 85 1020.5
20260509102519 53 360 0.0 0.0 0.00 0.00 0.00 84 1020.5
20260509101518 53 360 0.0 0.0 0.00 0.00 0.00 84 1020.6
20260509100517 53 360 0.0 0.0 0.00 0.00 0.00 83 1020.6
20260509095515 54 360 0.0 0.0 0.00 0.00 0.00 83 1020.7
20260509094514 54 360 0.0 0.0 0.00 0.00 0.00 83 1020.7
20260509092512 54 360 0.0 0.0 0.00 0.00 0.00 82 1020.8
20260509091512 55 360 0.0 0.0 0.00 0.00 0.00 82 1020.7
20260509085509 55 316 0.0 0.0 0.00 0.00 0.00 80 1020.9
20260509084508 55 316 0.0 0.0 0.00 0.00 0.00 80 1020.9
20260509083507 55 316 0.0 0.0 0.00 0.00 0.00 79 1021.0
20260509082506 56 316 0.0 0.0 0.00 0.00 0.00 79 1021.1
20260509081505 56 316 0.0 0.0 0.00 0.00 0.00 79 1021.3
20260509080504 56 316 0.0 0.0 0.00 0.00 0.00 78 1021.3
20260509075503 56 316 0.0 0.0 0.00 0.00 0.00 78 1021.4
20260509074502 56 316 0.0 0.0 0.00 0.00 0.00 77 1021.4
20260509073501 57 316 0.0 0.0 0.00 0.00 0.00 76 1021.4
20260509071459 58 316 0.0 0.0 0.00 0.00 0.00 75 1021.4
20260509070458 58 316 0.0 0.0 0.00 0.00 0.00 74 1021.4
20260509065457 58 316 0.0 0.0 0.00 0.00 0.00 74 1021.4
20260509064456 58 323 0.0 0.0 0.00 0.00 0.00 73 1021.5
20260509063455 59 324 0.0 0.0 0.00 0.00 0.00 72 1021.5
20260509062454 59 324 0.0 0.0 0.00 0.00 0.00 71 1021.3
20260509061453 59 325 0.0 0.0 0.00 0.00 0.00 70 1021.3
20260509055451 60 313 1.0 0.0 0.00 0.00 0.00 69 1021.3
20260509054450 61 313 0.0 0.0 0.00 0.00 0.00 68 1021.3
20260509053449 61 306 0.0 0.0 0.00 0.00 0.00 68 1021.2
20260509051447 61 313 0.0 0.0 0.00 0.00 0.00 67 1021.1
20260509050446 62 307 0.0 0.0 0.00 0.00 0.00 66 1021.0
20260509045445 62 296 0.0 0.0 0.00 0.00 0.00 65 1021.0
20260509044444 62 309 0.0 0.0 0.00 0.00 0.00 64 1020.9
20260509042442 63 326 0.0 0.0 0.00 0.00 0.00 63 1020.6
20260509040440 64 346 0.0 0.0 0.00 0.00 0.00 62 1020.4
20260509035439 64 317 3.0 0.0 0.00 0.00 0.00 61 1020.3
20260509034438 65 320 0.0 0.0 0.00 0.00 0.00 60 1020.1
20260509033437 65 320 0.0 0.0 0.00 0.00 0.00 59 1020.0
20260509032436 65 343 0.0 0.0 0.00 0.00 0.00 58 1019.9
20260509031435 66 322 5.0 0.0 0.00 0.00 0.00 56 1019.8
20260509030434 66 325 0.0 0.0 0.00 0.00 0.00 55 1019.8
20260509025433 67 329 3.0 0.0 0.00 0.00 0.00 54 1019.8
20260509024432 67 322 0.0 0.0 0.00 0.00 0.00 54 1019.8
20260509023431 67 329 0.0 0.0 0.00 0.00 0.00 53 1019.6
20260509022430 68 341 0.0 0.0 0.00 0.00 0.00 53 1019.6
20260509021429 68 338 0.0 0.0 0.00 0.00 0.00 52 1019.6
20260509015427 68 329 0.0 0.0 0.00 0.00 0.00 51 1019.6
20260509014426 68 321 0.0 0.0 0.00 0.00 0.00 52 1019.6
20260509013425 68 322 0.0 0.0 0.00 0.00 0.00 51 1019.7
20260509012424 69 322 0.0 0.0 0.00 0.00 0.00 50 1019.7
20260509011423 69 320 0.0 0.0 0.00 0.00 0.00 51 1019.7
20260509010421 69 320 0.0 0.0 0.00 0.00 0.00 50 1019.7
20260509005421 69 321 0.0 0.0 0.00 0.00 0.00 50 1019.8
20260509004420 69 323 0.0 0.0 0.00 0.00 0.00 48 1019.8
20260509003419 70 317 2.0 0.0 0.00 0.00 0.00 48 1019.8
20260509002418 70 342 0.0 0.0 0.00 0.00 0.00 48 1019.9
20260509000417 72 342 0.0 0.0 0.00 0.00 0.00 45 1020.0
20260508235415 73 302 0.0 0.0 0.00 0.00 0.00 43 1020.1
20260508234414 73 300 0.0 0.0 0.00 0.00 0.00 43 1020.0
20260508233412 73 219 0.0 0.0 0.00 0.00 0.00 44 1020.1
20260508232412 74 223 0.0 0.0 0.00 0.00 0.00 44 1020.1
20260508231410 74 257 0.0 0.0 0.00 0.00 0.00 44 1020.1
20260508230409 73 222 0.0 0.0 0.00 0.00 0.00 44 1020.1
20260508225409 73 228 0.0 0.0 0.00 0.00 0.00 44 1020.1
20260508223406 72 213 0.0 0.0 0.00 0.00 0.00 44 1020.2
20260508222405 72 240 0.0 0.0 0.00 0.00 0.00 44 1020.3
20260508221404 72 304 0.0 0.0 0.00 0.00 0.00 45 1020.4
20260508220404 72 209 0.0 0.0 0.00 0.00 0.00 45 1020.3
20260508214402 71 328 3.0 0.0 0.00 0.00 0.00 46 1020.5
20260508212359 71 213 3.0 0.0 0.00 0.00 0.00 46 1020.6
20260508211358 71 251 1.0 0.0 0.00 0.00 0.00 48 1020.6
20260508210357 70 166 0.0 0.0 0.00 0.00 0.00 48 1020.5
20260508205356 69 146 5.0 0.0 0.00 0.00 0.00 49 1020.6
20260508204355 69 201 0.0 0.0 0.00 0.00 0.00 47 1020.6
20260508203354 68 216 0.0 0.0 0.00 0.00 0.00 51 1020.7
20260508202353 68 233 0.0 0.0 0.00 0.00 0.00 50 1020.6
20260508201352 67 260 1.0 0.0 0.00 0.00 0.00 52 1020.7